Probability
3 2 1 1 2 3 5 6 5 3 1 0 1 2 2 1 0 0 1 5 7 7 6 5 4 3 3 4 4 2 1 0 1 2 2 1 1 1 1 1 1 1 1
3 3 1 0 1 2 4 6 6 3 1 0 0 1 1 0 0 0 1 4 7 8 7 5 4 4 3 3 3 2 1 1 1 1 1 1 1 3 3 2 2 2 2
3 3 2 1 1 1 3 4 5 3 2 1 0 0 0 0 0 0 1 3 6 8 8 7 5 4 3 3 2 2 2 2 1 1 0 0 1 3 4 3 3 3 3
3 3 3 2 2 3 3 3 4 4 3 1 0 0 0 0 0 0 1 2 3 5 6 6 5 4 4 4 3 2 1 1 1 0 0 0 0 1 2 3 3 3 3
2 2 2 3 3 3 3 3 3 4 3 2 1 0 0 0 0 0 0 1 1 1 2 3 3 2 2 3 3 3 2 1 0 0 0 0 0 0 1 2 2 3 3
1 1 2 3 3 3 3 3 3 3 3 3 2 1 0 0 0 0 0 0 0 0 0 1 1 1 0 1 2 2 2 1 0 0 0 0 0 0 0 1 1 2 3
0 1 2 2 3 3 3 3 3 3 3 3 2 1 0 0 0 0 0 0 0 0 0 1 2 2 1 0 1 1 1 0 0 0 0 0 0 0 0 0 0 1 2
0 0 1 1 1 2 3 3 3 3 3 2 1 0 1 1 1 1 0 0 0 0 0 1 2 3 2 0 0 1 1 0 0 0 0 0 0 0 0 0 0 1 2
0 1 1 1 0 1 3 3 3 2 1 1 0 0 1 2 2 2 1 1 0 0 0 1 2 3 1 0 0 1 1 0 0 0 0 0 0 0 0 0 1 1 1
1 2 3 3 2 2 3 3 3 2 0 0 0 1 2 3 3 3 3 2 1 0 0 1 2 2 1 0 0 0 0 0 0 0 0 0 0 0 0 0 0 0 0
4 4 5 5 5 5 4 4 3 2 1 1 1 2 3 3 2 3 3 3 2 1 0 0 1 1 0 0 0 0 0 0 0 0 0 0 0 0 0 0 0 0 0
6 7 7 7 8 7 6 5 4 3 3 3 3 4 4 4 3 3 3 3 3 2 1 0 0 0 0 0 0 0 0 0 0 0 0 0 0 0 0 0 0 0 0
6 6 7 7 8 8 7 6 4 4 5 6 6 5 5 5 4 3 3 3 3 3 1 0 0 0 0 0 0 0 0 0 0 0 0 0 0 0 0 0 0 0 0
4 5 6 7 7 7 7 6 5 5 6 6 6 6 6 5 4 4 4 5 4 3 2 1 0 0 0 0 0 0 0 0 0 0 0 0 0 0 0 0 0 0 0
5 5 6 7 7 6 6 6 6 6 6 6 6 6 6 6 5 5 6 6 5 4 4 2 1 0 0 0 0 0 0 0 0 0 0 0 0 0 0 0 0 0 0
7 6 6 7 7 7 7 6 6 6 6 6 6 6 6 6 6 5 5 6 6 6 5 3 2 0 0 0 0 0 0 0 0 0 0 0 0 0 0 0 0 0 0
9 8 7 7 8 8 7 7 6 6 6 6 6 6 6 6 6 5 5 6 6 6 6 4 1 0 0 0 0 0 0 0 0 0 0 0 0 0 0 0 0 0 0
10 10 10 9 9 10 10 8 7 7 6 6 6 6 6 6 6 6 5 5 6 6 5 4 1 0 0 0 0 0 0 0 0 0 0 0 0 0 0 0 0 0 0
10 11 11 10 10 11 11 11 9 7 6 6 6 6 6 6 6 5 4 4 5 4 4 3 1 0 0 0 0 0 0 0 0 0 0 0 0 0 0 0 0 0 0
9 10 10 10 10 10 11 11 10 8 6 6 6 6 6 6 5 4 3 3 4 3 3 2 1 0 0 0 0 0 0 0 0 0 0 0 0 0 0 0 0 0 0
7 7 7 7 7 7 7 8 8 6 5 4 4 3 3 3 3 2 2 2 3 3 3 2 1 0 0 0 0 0 0 0 0 0 0 0 0 0 0 0 0 0 0
6 6 5 5 5 4 4 3 3 3 3 3 2 1 1 1 1 0 1 2 3 3 3 2 1 0 0 0 0 0 0 0 0 0 0 0 0 0 0 0 0 0 0
5 5 5 5 4 3 2 1 0 1 1 2 1 0 0 0 0 0 1 2 3 3 2 1 1 0 0 0 0 0 0 0 0 0 0 0 0 0 0 0 0 0 0
4 4 4 4 4 3 2 1 0 0 0 0 0 0 0 0 0 0 1 2 3 2 1 0 0 0 0 0 0 0 0 0 0 0 0 0 0 0 0 0 0 0 0
4 3 3 3 3 3 3 2 0 0 0 0 0 0 0 0 0 0 0 1 2 2 1 0 0 0 0 0 0 0 0 0 0 0 0 0 0 0 0 0 0 0 0
5 4 3 3 3 3 3 1 0 0 0 0 0 0 0 0 0 0 0 1 2 1 0 0 0 0 0 0 0 0 0 0 0 0 0 0 0 0 0 0 0 0 0
Wind_Speed
0 0 0 1 1 1 1 1 1 1 1 2 1 1 1 1 1 1 1 3 4 4 4 4 5 6 6 6 5 5 5 5 5 5 4 5 5 5 5 4 4 3 3
1 1 1 1 0 0 1 1 2 2 1 1 1 1 1 1 1 1 1 1 2 3 4 4 4 5 5 5 5 5 5 5 5 5 5 5 5 4 4 4 3 3 3
1 1 1 0 0 1 1 2 2 2 2 1 2 2 1 1 0 1 1 0 1 2 3 3 3 4 4 4 4 4 4 4 4 4 4 4 4 4 4 4 4 3 3
1 1 1 0 0 1 1 2 2 2 1 1 1 1 1 1 1 0 0 1 1 1 2 2 3 3 3 4 4 4 4 4 4 4 5 4 4 4 4 4 4 3 2
1 1 1 0 1 2 1 1 2 2 1 1 1 1 1 1 1 1 0 1 1 1 1 1 2 3 3 4 4 4 5 5 5 5 5 5 4 4 4 4 3 3 2
1 1 1 1 1 2 1 1 2 2 1 1 1 1 1 1 1 1 0 0 1 1 1 1 1 1 3 3 4 4 5 5 5 5 5 5 4 4 4 4 4 3 3
1 1 1 1 1 1 1 2 2 2 1 1 2 1 2 1 1 0 0 0 1 1 1 1 1 1 2 3 3 4 4 5 5 5 5 5 4 4 4 4 4 4 3
1 1 1 1 1 1 1 1 2 1 1 1 2 1 1 3 2 1 0 1 1 1 1 2 2 2 2 2 3 5 5 5 5 6 6 5 5 5 4 5 4 4 4
1 1 1 1 1 1 1 1 2 2 1 0 1 2 2 2 2 2 1 1 1 1 1 2 2 2 3 2 3 4 5 5 6 6 6 6 5 5 4 4 4 4 4
1 1 1 1 1 1 1 1 2 1 2 1 0 0 1 2 1 1 2 1 1 1 2 2 2 2 2 2 3 4 4 5 6 6 6 6 5 5 5 4 4 4 3
0 1 1 1 1 1 1 1 2 2 2 2 1 1 1 1 1 1 1 2 2 2 2 2 2 2 2 2 3 3 4 4 5 6 6 5 5 5 5 5 4 4 4
1 1 1 1 1 1 1 1 1 2 2 2 1 1 2 2 2 2 2 2 2 2 2 1 1 2 2 2 3 3 3 4 4 5 4 4 5 5 5 5 4 4 4
1 1 1 1 1 1 1 1 1 1 1 1 2 1 2 2 2 2 2 1 1 1 2 1 1 2 2 2 2 3 3 3 4 4 4 4 4 5 5 5 5 5 4
2 1 1 1 1 1 1 1 1 1 1 1 2 1 1 1 1 2 2 2 1 1 1 2 1 1 2 2 2 3 2 3 3 3 4 4 4 4 5 5 5 5 4
1 1 1 1 1 1 1 1 1 1 1 1 2 2 1 1 1 1 1 2 2 2 2 2 1 1 1 1 1 1 1 1 2 3 3 3 3 4 4 4 3 3 3
1 0 1 1 1 1 1 1 1 1 1 2 2 2 1 1 1 1 2 2 2 2 2 2 2 1 1 1 1 1 1 0 1 2 2 3 2 2 2 2 2 2 3
1 1 1 1 1 1 1 1 2 2 2 2 1 2 2 1 1 1 1 1 1 2 3 2 1 1 1 1 1 0 0 1 1 2 2 2 2 2 2 2 2 2 3
1 1 1 1 1 1 1 2 2 2 2 2 2 2 2 2 2 1 1 2 2 2 2 2 1 1 1 1 1 1 1 0 1 1 2 2 2 2 2 2 2 3 3
1 1 1 1 2 2 2 2 2 2 2 3 2 2 3 2 2 2 2 2 2 2 2 2 2 1 1 1 1 1 1 1 1 1 1 2 2 3 3 2 2 3 3
1 2 1 1 2 2 2 2 2 2 2 2 2 3 3 3 3 3 2 2 2 2 1 1 1 1 1 1 0 1 1 1 1 1 1 0 1 2 2 2 3 3 4
2 2 1 1 1 1 2 1 1 2 2 2 2 2 3 3 4 3 2 3 3 2 2 2 2 1 1 1 1 1 1 1 1 1 1 1 0 1 2 3 3 4 4
2 2 2 1 2 2 2 2 1 1 2 2 2 2 3 2 3 3 4 4 4 4 3 3 2 3 3 3 2 2 1 1 1 1 1 1 1 1 2 2 3 4 4
2 2 2 1 2 3 3 3 2 1 1 2 2 2 2 2 1 1 2 2 3 4 5 4 4 5 4 4 3 3 2 2 2 1 1 1 1 2 2 1 3 4 4
2 2 2 2 2 3 4 4 3 1 2 2 2 3 3 3 2 2 2 2 2 3 4 5 5 6 5 4 4 4 3 2 1 1 2 2 1 1 1 1 2 3 4
2 2 2 2 2 3 4 4 3 1 2 2 3 2 3 3 4 2 2 2 3 3 3 4 5 5 5 5 5 3 3 2 2 1 2 2 1 1 1 1 1 1 2
3 2 2 2 3 4 4 4 2 1 2 3 2 2 3 3 4 3 2 2 3 3 3 2 2 2 3 4 6 6 4 3 2 2 3 3 2 1 1 0 1 1 0
Wind_Direction
130 61 46 40 36 61 100 106 97 82 74 60 71 99 125 151 164 155 160 183 182 180 186 187 188 189 189 187 188 189 192 196 193 191 191 188 189 187 184 184 182 183 189
146 125 90 63 40 82 119 124 121 108 85 62 55 57 76 97 116 140 152 182 188 188 198 201 202 196 195 194 198 195 193 195 196 193 189 184 184 181 181 182 186 181 183
158 146 116 100 67 92 95 98 99 98 95 73 51 41 42 66 110 133 149 202 216 208 209 206 199 199 199 198 198 188 186 182 179 175 174 174 176 177 182 185 188 187 188
136 125 114 108 95 93 90 104 100 94 83 66 47 19 13 14 23 89 156 207 220 237 232 203 198 204 205 199 198 203 202 196 187 183 186 184 181 177 174 169 172 176 177
99 108 105 50 96 98 89 116 101 108 110 77 46 27 9 8 5 13 1 246 237 236 230 223 219 220 219 211 206 207 205 204 200 190 184 181 182 176 171 172 174 176 177
94 105 95 66 98 100 87 90 100 94 111 110 77 35 2 351 357 7 325 328 285 245 213 214 233 248 244 226 213 213 208 205 200 195 193 192 190 186 186 191 191 190 191
94 103 96 76 93 124 138 125 115 104 92 94 84 26 355 353 346 331 311 314 285 253 215 211 220 243 258 237 219 216 210 211 203 199 200 201 197 196 201 204 202 203 194
109 131 120 135 134 123 112 122 113 115 100 99 113 100 2 345 331 346 347 237 262 247 232 229 227 235 248 236 222 221 216 211 209 206 204 201 202 202 206 210 210 210 211
142 133 139 138 113 119 146 156 138 139 152 100 113 141 148 228 309 334 341 307 281 256 259 251 237 239 246 242 232 228 222 219 220 217 214 210 209 210 213 215 217 218 222
157 159 146 140 131 136 148 175 143 149 145 155 147 101 150 156 158 325 334 332 311 274 270 266 262 250 244 241 238 233 230 225 223 223 223 217 213 214 220 219 221 223 228
235 195 175 160 156 175 187 166 148 158 160 166 168 153 138 109 133 162 275 315 328 304 286 267 266 258 252 248 243 241 231 224 217 220 222 220 221 224 223 220 225 232 236
312 303 229 189 190 196 205 197 175 167 175 171 171 167 164 170 186 179 214 253 281 298 306 289 277 267 257 252 252 258 236 229 221 220 221 224 226 224 223 227 234 242 248
276 272 240 223 219 210 205 190 170 182 180 181 194 207 205 206 177 171 182 220 255 294 310 301 267 266 264 254 263 269 248 231 223 224 226 230 227 227 230 234 239 248 258
253 274 245 228 227 215 207 180 179 210 163 195 218 212 211 223 192 181 179 176 229 295 291 281 292 274 275 261 273 262 255 233 225 227 230 233 233 235 235 236 241 244 244
255 290 284 267 251 233 204 173 192 219 189 202 222 219 213 227 199 202 195 185 185 233 266 264 275 302 280 261 284 247 250 239 225 222 221 224 228 229 227 229 231 224 213
291 296 287 277 287 273 240 196 215 218 201 229 215 199 206 221 202 183 200 200 198 204 241 254 254 292 301 290 321 228 231 198 214 212 205 208 210 209 200 196 196 204 201
288 266 255 255 261 267 255 223 230 217 218 243 234 201 225 212 204 201 190 190 206 203 234 270 266 288 289 289 339 295 234 223 239 219 210 201 197 195 185 179 182 181 183
287 273 259 255 259 260 252 237 245 241 227 236 239 223 244 226 217 216 195 203 213 209 219 252 277 294 280 286 299 275 296 277 250 240 208 201 192 192 190 189 184 186 187
296 301 291 270 268 260 258 251 243 248 239 238 234 230 243 226 225 221 210 213 215 208 208 228 259 271 281 318 326 310 305 298 279 242 211 206 192 186 184 188 189 202 205
318 311 304 289 276 264 265 260 249 248 256 256 249 246 245 229 229 221 210 210 205 194 196 218 243 260 268 287 251 255 283 291 281 307 357 214 179 181 194 207 208 209 213
321 305 310 316 310 282 283 275 256 246 245 257 266 273 263 255 250 234 224 206 198 194 193 208 226 230 240 232 237 226 234 265 274 287 283 266 219 217 222 229 224 221 215
329 326 314 312 320 315 335 328 291 266 259 260 268 275 275 261 275 258 247 222 196 197 202 206 220 228 236 230 222 213 199 210 259 238 225 270 213 241 250 237 230 218 214
319 325 324 316 303 314 327 319 312 270 262 262 265 277 287 289 287 279 270 252 225 221 209 203 220 232 230 218 205 216 213 215 234 217 186 239 229 252 264 257 225 220 216
290 284 293 295 291 309 320 317 313 289 269 270 263 259 267 284 279 276 265 267 260 249 237 227 229 236 234 219 205 211 214 212 234 225 196 221 233 253 281 274 260 228 216
288 281 286 278 278 294 307 308 309 290 279 281 281 274 264 269 276 268 251 264 278 282 262 244 237 242 239 226 197 177 183 189 226 220 191 201 215 235 262 289 306 259 220
278 282 286 279 272 282 297 301 296 272 282 285 285 280 264 269 274 255 242 249 264 276 292 300 278 268 242 217 197 197 197 198 204 213 187 190 198 190 214 241 309 311 221